DW8463 Weather Reports


time (UTC)temp
F
wind
direction
speed
knots
gust
knots
rain 1hr
in
rain 24hr
in
rain mn
in
humidity
%
barometer
mb
20260904123803 70 117 0.0 0.0 0.00 0.01 0.00 98 1008.1
20260904123303 70 117 0.0 0.0 0.00 0.01 0.00 98 1008.1
20260904122306 70 0 0.0 0.0 0.00 0.01 0.00 98 1008.1
20260904121803 70 0 0.0 0.0 0.00 0.01 0.00 98 1008.0
20260904121303 70 0 0.0 0.0 0.00 0.01 0.00 98 1008.1
20260904120804 69 0 0.0 0.0 0.00 0.01 0.00 98 1008.0
20260904120303 69 0 0.0 0.0 0.00 0.02 0.00 98 1008.0
20260904115803 70 0 0.0 0.0 0.00 0.02 0.00 97 1008.0
20260904114303 70 0 0.0 0.0 0.00 0.02 0.00 97 1008.0
20260904113803 70 0 0.0 0.0 0.00 0.02 0.00 97 1007.9
20260904113303 70 0 0.0 0.0 0.00 0.02 0.00 97 1007.9
20260904112803 70 0 0.0 0.0 0.00 0.02 0.00 97 1007.9
20260904112305 70 0 0.0 0.0 0.00 0.02 0.00 97 1007.9
20260904111303 70 0 0.0 0.0 0.00 0.02 0.00 97 1007.7
20260904110803 70 0 0.0 0.0 0.00 0.02 0.00 97 1007.7
20260904110303 70 0 0.0 0.0 0.00 0.02 0.00 97 1007.7
20260904105803 70 0 0.0 0.0 0.00 0.02 0.00 97 1007.7
20260904105305 70 0 0.0 0.0 0.00 0.02 0.00 97 1007.6
20260904104803 70 0 0.0 0.0 0.00 0.02 0.00 97 1007.6
20260904103803 71 0 0.0 0.0 0.00 0.02 0.00 97 1007.7
20260904103303 71 0 0.0 0.0 0.00 0.02 0.00 97 1007.7
20260904102803 71 0 0.0 0.0 0.00 0.02 0.00 97 1007.7
20260904102306 71 0 0.0 0.0 0.00 0.02 0.00 97 1007.7
20260904101303 71 0 0.0 0.0 0.00 0.02 0.00 97 1007.8
20260904100303 71 0 0.0 0.0 0.00 0.02 0.00 97 1007.7
20260904095803 71 0 0.0 0.0 0.00 0.02 0.00 96 1007.7
20260904095306 71 0 0.0 0.0 0.00 0.02 0.00 96 1007.7
20260904094803 71 0 0.0 0.0 0.00 0.02 0.00 96 1007.7
20260904094303 71 0 0.0 0.0 0.00 0.02 0.00 96 1007.7
20260904093803 71 0 0.0 0.0 0.00 0.02 0.00 96 1007.7
20260904093303 71 0 0.0 0.0 0.00 0.02 0.00 96 1007.7
20260904092306 71 0 0.0 0.0 0.00 0.02 0.00 96 1007.6
20260904091803 71 0 0.0 0.0 0.00 0.02 0.00 96 1007.5
20260904091303 71 0 0.0 0.0 0.00 0.02 0.00 96 1007.4
20260904090303 71 0 0.0 0.0 0.00 0.02 0.00 96 1007.4
20260904085803 71 0 0.0 0.0 0.00 0.02 0.00 89 1007.4
20260904085305 71 0 0.0 0.0 0.00 0.02 0.00 89 1007.3
20260904084803 71 0 0.0 0.0 0.00 0.02 0.00 89 1007.2
20260904084303 71 0 0.0 0.0 0.00 0.02 0.00 89 1007.1
20260904083804 71 0 0.0 0.0 0.00 0.02 0.00 89 1007.1
20260904083303 71 0 0.0 0.0 0.00 0.02 0.00 89 1007.0
20260904082305 71 0 0.0 0.0 0.00 0.02 0.00 89 1007.0
20260904081803 71 0 0.0 0.0 0.00 0.02 0.00 89 1007.1
20260904081303 71 0 0.0 0.0 0.00 0.02 0.00 89 1007.0
20260904080803 72 0 0.0 0.0 0.00 0.02 0.00 89 1007.1
20260904080303 72 0 0.0 0.0 0.00 0.02 0.00 89 1007.0
20260904075803 72 0 0.0 0.0 0.00 0.02 0.00 90 1007.0
20260904075306 72 0 0.0 0.0 0.00 0.02 0.00 90 1007.0
20260904074803 72 0 0.0 0.0 0.00 0.02 0.00 90 1007.1
20260904073803 72 0 0.0 0.0 0.00 0.02 0.00 90 1007.2
20260904073303 72 341 0.0 0.0 0.00 0.02 0.00 90 1007.3
20260904072803 72 351 0.0 0.0 0.00 0.02 0.00 90 1007.3
20260904072306 72 195 0.0 0.0 0.00 0.02 0.00 90 1007.3
20260904071803 73 179 0.0 0.0 0.00 0.02 0.00 90 1007.4
20260904070803 73 206 0.0 0.0 0.00 0.02 0.00 90 1007.4
20260904070303 73 197 0.0 0.0 0.00 0.02 0.00 92 1007.4
20260904065803 73 196 0.0 0.0 0.00 0.02 0.00 100 1007.5
20260904064803 73 189 0.0 0.0 0.00 0.02 0.00 100 1007.6
20260904064302 73 189 0.0 0.0 0.00 0.02 0.00 100 1007.6
20260904063303 73 190 0.0 0.0 0.00 0.02 0.00 100 1007.7
20260904062803 73 188 0.0 0.0 0.00 0.02 0.00 100 1007.6
20260904062306 73 182 0.0 0.0 0.00 0.02 0.00 100 1007.6
20260904061803 74 103 0.0 0.0 0.00 0.02 0.00 100 1007.6
20260904061303 74 117 0.0 0.0 0.00 0.02 0.00 100 1007.6
20260904060803 74 117 0.0 0.0 0.00 0.02 0.00 100 1007.6
20260904060303 74 117 0.0 0.0 0.00 0.02 0.00 100 1007.6
20260904055803 74 117 0.0 0.0 0.00 0.02 0.00 100 1007.5
20260904055306 74 117 0.0 1.7 0.00 0.02 0.00 100 1007.5
20260904054803 74 117 0.0 0.9 0.00 0.02 0.00 100 1007.6
20260904054303 74 117 0.0 2.6 0.00 0.02 0.00 100 1007.6
20260904053803 74 172 0.9 1.7 0.00 0.02 0.00 100 1007.6
20260904053303 74 128 0.9 2.6 0.00 0.02 0.00 100 1007.6
20260904052803 75 128 0.0 1.7 0.00 0.02 0.00 100 1007.6
20260904052306 75 128 0.0 0.9 0.00 0.02 0.00 100 1007.6
20260904051803 75 127 0.9 2.6 0.00 0.02 0.00 100 1007.6
20260904051304 75 59 0.0 2.6 0.00 0.02 0.00 100 1007.6
20260904050810 75 81 0.9 2.6 0.00 0.02 0.00 100 1007.6
20260904045803 75 124 0.0 1.7 0.00 0.02 0.02 100 1007.5
20260904045306 75 124 1.7 2.6 0.00 0.02 0.02 100 1007.5
20260904044803 75 124 0.9 2.6 0.00 0.02 0.02 100 1007.6
20260904044303 75 124 0.9 2.6 0.00 0.02 0.02 100 1007.6
20260904043803 75 124 0.0 0.9 0.00 0.02 0.02 100 1007.6
20260904043303 75 124 0.0 0.0 0.00 0.02 0.02 100 1007.6
20260904042803 75 124 0.0 0.0 0.00 0.02 0.02 100 1007.7
20260904042306 75 124 0.0 1.7 0.00 0.02 0.02 100 1007.6
20260904041803 75 124 0.0 0.0 0.00 0.02 0.02 100 1007.6
20260904041303 75 124 0.0 1.7 0.00 0.02 0.02 100 1007.6
20260904040803 75 124 0.9 1.7 0.00 0.02 0.02 100 1007.6
20260904040303 75 124 0.0 2.6 0.00 0.02 0.02 100 1007.6
20260904035803 75 124 1.7 2.6 0.00 0.02 0.02 100 1007.6
20260904035306 75 124 0.0 1.7 0.00 0.02 0.02 100 1007.7
20260904034803 75 124 0.9 1.7 0.00 0.02 0.02 100 1007.7
20260904033803 76 124 0.9 2.6 0.00 0.02 0.02 100 1007.7
20260904033304 76 124 0.9 2.6 0.00 0.02 0.02 100 1007.6
20260904032803 76 124 0.9 2.6 0.00 0.02 0.02 100 1007.6
20260904032305 76 124 0.9 2.6 0.00 0.02 0.02 100 1007.6
20260904031803 77 91 0.9 4.3 0.00 0.02 0.02 100 1007.6
20260904031304 77 133 2.6 2.6 0.00 0.02 0.02 100 1007.7
20260904030803 77 135 1.7 2.6 0.00 0.02 0.02 100 1007.7
20260904030303 77 135 0.9 2.6 0.00 0.02 0.02 100 1007.7
20260904025804 77 135 0.9 1.7 0.00 0.02 0.02 93 1007.6
20260904024803 77 135 0.0 2.6 0.00 0.02 0.02 93 1007.5
20260904024303 77 168 1.7 7.0 0.00 0.02 0.02 93 1007.4
20260904023803 77 142 0.0 2.6 0.00 0.02 0.02 93 1007.5
20260904023303 77 105 0.0 2.6 0.00 0.02 0.02 93 1007.5
20260904022803 77 151 0.9 4.3 0.00 0.02 0.02 93 1007.4
20260904021303 77 173 0.0 1.7 0.00 0.02 0.02 93 1007.5
20260904020803 77 123 0.9 1.7 0.00 0.02 0.02 93 1007.5
20260904020303 78 117 0.0 2.6 0.00 0.02 0.02 93 1007.5
20260904015803 78 134 0.9 1.7 0.00 0.02 0.02 97 1007.4
20260904015306 78 140 0.0 2.6 0.00 0.02 0.02 97 1007.4
20260904014803 78 140 0.9 2.6 0.00 0.02 0.02 97 1007.4
20260904014303 78 150 0.9 1.7 0.00 0.02 0.02 97 1007.3
20260904013803 79 179 0.9 4.3 0.00 0.02 0.02 97 1007.3
20260904013303 79 142 0.9 5.2 0.00 0.02 0.02 97 1007.3
20260904012803 79 224 0.0 2.6 0.00 0.02 0.02 97 1007.1
20260904012306 79 162 1.7 5.2 0.00 0.02 0.02 97 1006.9
20260904011803 79 137 1.7 7.0 0.00 0.02 0.02 97 1007.0
20260904010803 79 162 0.9 2.6 0.00 0.02 0.02 97 1007.0
20260904010303 79 160 2.6 7.8 0.00 0.02 0.02 95 1007.0
20260904005803 79 147 0.9 2.6 0.00 0.02 0.02 85 1007.1
20260904005306 79 154 0.9 2.6 0.00 0.02 0.02 85 1007.2
20260904004803 80 158 0.9 5.2 0.00 0.02 0.02 85 1007.2
20260904004303 80 139 0.9 4.3 0.00 0.02 0.02 85 1007.2
20260904003804 80 138 1.7 7.8 0.00 0.02 0.02 85 1007.2
20260904003303 81 143 2.6 8.7 0.00 0.02 0.02 85 1007.1
20260904002803 81 127 2.6 8.7 0.00 0.02 0.02 85 1007.2
20260904002306 81 152 2.6 6.1 0.00 0.02 0.02 85 1007.2
20260904001803 81 124 4.3 7.0 0.00 0.02 0.02 85 1007.2
20260904001303 81 170 0.9 6.1 0.00 0.02 0.02 85 1007.3
20260904000803 81 242 2.6 7.8 0.00 0.02 0.02 85 1007.3
20260904000303 81 144 2.6 6.1 0.00 0.02 0.02 85 1007.1
20260903235803 81 149 3.5 7.8 0.00 0.02 0.02 76 1007.1
20260903235305 82 178 4.3 8.7 0.00 0.02 0.02 76 1006.9
20260903234803 82 155 5.2 8.7 0.00 0.02 0.02 76 1006.9
20260903233804 82 191 1.7 7.0 0.00 0.02 0.02 76 1006.8
20260903233303 82 159 4.3 8.7 0.00 0.02 0.02 76 1006.8
20260903231303 83 154 2.6 7.0 0.00 0.02 0.02 76 1006.8
20260903230303 83 137 5.2 11.3 0.00 0.02 0.02 76 1006.8
20260903225803 83 151 2.6 10.4 0.00 0.02 0.02 75 1006.7
20260903225306 84 145 3.5 8.7 0.00 0.02 0.02 75 1006.6
20260903224303 84 140 6.1 13.0 0.00 0.02 0.02 75 1006.6
20260903223803 84 147 5.2 13.0 0.00 0.02 0.02 75 1006.7
20260903223304 84 164 1.7 7.0 0.00 0.02 0.02 75 1006.7
20260903222803 84 141 3.5 8.7 0.00 0.02 0.02 75 1006.8
20260903222305 84 123 4.3 7.0 0.00 0.02 0.02 75 1006.8
20260903221804 84 152 2.6 10.4 0.00 0.02 0.02 75 1007.1
20260903221303 85 150 4.3 8.7 0.00 0.02 0.02 75 1007.1
20260903220803 84 151 3.5 10.4 0.00 0.02 0.02 75 1007.1
20260903220303 83 159 5.2 10.4 0.00 0.02 0.02 75 1007.2
20260903215803 84 167 4.3 10.4 0.00 0.02 0.02 72 1007.1
20260903215306 84 164 4.3 12.2 0.00 0.02 0.02 72 1007.1
20260903214803 84 111 7.0 12.2 0.00 0.02 0.02 72 1007.0
20260903214303 85 142 4.3 10.4 0.00 0.02 0.02 72 1007.0
20260903213803 85 156 5.2 10.4 0.00 0.02 0.02 72 1007.0
20260903213303 85 144 6.1 11.3 0.00 0.02 0.02 72 1007.0
20260903211803 86 156 5.2 10.4 0.00 0.02 0.02 72 1006.9
20260903210803 86 173 5.2 11.3 0.00 0.02 0.02 72 1007.2
20260903210303 85 166 5.2 12.2 0.00 0.02 0.02 72 1007.1
20260903205803 86 162 6.1 11.3 0.00 0.02 0.02 72 1007.2
20260903205306 85 147 3.5 10.4 0.00 0.02 0.02 72 1007.3
20260903204303 86 154 4.3 12.2 0.00 0.02 0.02 72 1007.2
20260903203803 86 168 4.3 10.4 0.00 0.02 0.02 72 1007.2
20260903202803 85 126 5.2 10.4 0.00 0.02 0.02 72 1007.2
20260903202306 85 147 5.2 13.0 0.00 0.02 0.02 72 1007.1
20260903201803 85 126 6.1 14.8 0.00 0.02 0.02 72 1007.3
20260903201303 85 154 5.2 10.4 0.00 0.02 0.02 72 1007.5
20260903200803 85 148 4.3 17.4 0.00 0.02 0.02 72 1007.7
20260903195803 86 144 4.3 12.2 0.00 0.02 0.02 67 1007.5
20260903194803 85 128 2.6 7.0 0.00 0.02 0.02 67 1007.7
20260903194303 83 113 4.3 10.4 0.00 0.02 0.02 67 1007.8
20260903193803 84 163 6.1 11.3 0.00 0.02 0.02 67 1007.7
20260903193303 84 124 5.2 12.2 0.00 0.02 0.02 67 1007.6
20260903192804 84 127 7.8 13.0 0.00 0.02 0.02 67 1007.6
20260903192306 84 126 5.2 10.4 0.00 0.02 0.02 67 1007.7
20260903191803 84 137 6.1 11.3 0.00 0.02 0.02 67 1007.9
20260903191303 85 118 6.1 13.9 0.00 0.02 0.02 67 1008.0
20260903190803 84 156 5.2 10.4 0.00 0.02 0.02 67 1007.9
20260903190303 85 149 7.0 11.3 0.00 0.02 0.02 67 1007.9
20260903185803 85 162 4.3 10.4 0.00 0.02 0.02 71 1008.0
20260903185306 85 130 4.3 12.2 0.00 0.02 0.02 71 1008.0
20260903184803 84 115 4.3 8.7 0.00 0.02 0.02 71 1008.1
20260903184303 83 151 6.1 11.3 0.00 0.02 0.02 71 1008.2
20260903183803 83 126 5.2 10.4 0.00 0.02 0.02 71 1008.4
20260903183303 83 122 4.3 11.3 0.00 0.02 0.02 71 1008.6
20260903182803 84 144 4.3 12.2 0.00 0.02 0.02 71 1008.7
20260903182306 84 138 5.2 13.9 0.00 0.02 0.02 71 1008.6
20260903181803 84 138 7.0 10.4 0.00 0.02 0.02 71 1008.8
20260903181304 83 136 2.6 10.4 0.00 0.02 0.02 71 1008.8
20260903180804 83 149 2.6 7.0 0.00 0.02 0.02 71 1008.7
20260903180303 84 155 5.2 11.3 0.00 0.02 0.02 71 1008.7
20260903175804 84 172 5.2 8.7 0.00 0.02 0.02 70 1008.6
20260903175306 84 182 2.6 7.8 0.00 0.02 0.02 70 1008.5
20260903174803 85 163 5.2 7.8 0.00 0.02 0.02 70 1008.5
20260903174303 85 172 2.6 7.8 0.00 0.02 0.02 70 1008.6
20260903173303 85 121 4.3 8.7 0.00 0.02 0.02 70 1008.6
20260903172803 84 167 1.7 7.0 0.00 0.02 0.02 70 1008.6
20260903172306 83 117 3.5 8.7 0.00 0.02 0.02 70 1008.5
20260903171803 83 102 2.6 7.0 0.00 0.02 0.02 70 1008.5
20260903171304 84 119 3.5 7.0 0.00 0.02 0.02 70 1008.4
20260903170803 84 128 2.6 6.1 0.00 0.02 0.02 70 1008.4
20260903170303 83 118 2.6 7.0 0.00 0.02 0.02 73 1008.5
20260903165803 82 146 0.9 4.3 0.00 0.02 0.02 84 1008.5
20260903165305 81 134 1.7 2.6 0.00 0.02 0.02 84 1008.7
20260903164803 81 163 2.6 4.3 0.00 0.02 0.02 84 1008.7
20260903164304 81 132 0.9 2.6 0.00 0.02 0.02 84 1008.6
20260903163804 81 123 0.0 4.3 0.00 0.02 0.02 84 1008.6
20260903163303 82 95 0.0 1.7 0.00 0.02 0.02 84 1008.5
20260903162804 81 123 0.9 2.6 0.00 0.02 0.02 84 1008.6
20260903162306 80 135 0.9 2.6 0.00 0.02 0.02 84 1008.5
20260903161803 79 140 0.9 7.8 0.00 0.02 0.02 84 1008.5
20260903161303 79 161 4.3 7.8 0.00 0.02 0.02 84 1008.4
20260903160803 80 154 2.6 7.0 0.00 0.02 0.02 84 1008.4
20260903160303 79 113 1.7 5.2 0.00 0.02 0.02 87 1008.5
20260903155803 79 169 0.9 4.3 0.00 0.02 0.02 98 1008.4
20260903155306 78 122 1.7 7.0 0.00 0.02 0.02 98 1008.4
20260903154803 77 138 1.7 8.7 0.00 0.02 0.02 98 1008.5
20260903154303 76 176 0.0 4.3 0.00 0.02 0.02 98 1008.5
20260903153803 76 142 2.6 6.1 0.00 0.02 0.02 98 1008.8
20260903153303 76 176 1.7 6.1 0.00 0.02 0.02 98 1008.9
20260903152306 76 91 2.6 5.2 0.00 0.02 0.02 98 1008.7
20260903151804 76 163 1.7 6.1 0.00 0.02 0.02 98 1008.6
20260903151303 76 144 4.3 7.8 0.00 0.02 0.02 98 1008.5
20260903150303 75 112 1.7 7.0 0.00 0.02 0.02 98 1008.4
20260903145803 75 92 0.9 6.1 0.00 0.02 0.02 100 1008.6
20260903145306 74 81 4.3 7.8 0.00 0.02 0.02 100 1008.6
20260903144303 73 96 1.7 7.8 0.00 0.02 0.02 100 1008.8
20260903143803 72 132 2.6 7.8 0.00 0.02 0.02 100 1008.9
20260903143303 73 189 2.6 7.0 0.00 0.02 0.02 100 1009.1
20260903142803 73 151 1.7 5.2 0.00 0.02 0.02 100 1008.9
20260903142306 73 207 0.9 7.0 0.00 0.02 0.02 100 1008.8
20260903141803 72 151 2.6 5.2 0.00 0.02 0.02 100 1008.6
20260903141303 72 219 2.6 7.0 0.00 0.02 0.02 100 1008.5
20260903140803 72 82 1.7 7.0 0.00 0.02 0.02 100 1008.3
20260903140303 72 0 1.7 5.2 0.00 0.02 0.02 100 1008.2
20260903135803 72 0 0.9 5.2 0.00 0.02 0.02 99 1008.4
20260903135306 71 0 0.9 5.2 0.01 0.02 0.02 99 1008.5
20260903134803 71 0 1.7 7.8 0.01 0.02 0.02 99 1008.5
20260903134303 71 202 2.6 7.0 0.01 0.02 0.02 99 1008.5
20260903132803 71 229 1.7 5.2 0.01 0.02 0.02 99 1009.1
20260903132306 71 195 2.6 4.3 0.01 0.02 0.02 99 1009.1
20260903131804 71 208 2.6 4.3 0.01 0.02 0.02 99 1009.3
20260903131304 71 202 1.7 2.6 0.01 0.02 0.02 99 1009.5
20260903130803 70 154 2.6 5.2 0.01 0.02 0.02 99 1009.9
20260903130303 70 151 2.6 5.2 0.02 0.02 0.02 99 1009.8
20260903125305 70 307 0.0 0.0 0.01 0.01 0.01 95 1009.6
20260903124804 71 306 0.0 0.9 0.01 0.01 0.01 95 1009.9
20260903124303 71 306 0.0 0.9 0.01 0.01 0.01 95 1009.9